Location: Lecco
(45.8566°N, 9.3977°E)
Time: 04:54:10
(UTC+02:00)

Transit 4A - Pass Details

Date: 17 August 2020
Orbit: 863 x 982 km, 66.8° (Epoch: 23 September)

Event Time Altitude Azimuth Distance (km) Brightness Sun altitude
Rises 10:16:43 0° 239° (WSW) 3,506 10.6 38.5°
Reaches altitude 10° 10:19:22 10° 248° (WSW) 2,587 10.0 38.9°
Maximum altitude 10:24:55 37° 315° (NW) 1,397 8.8 39.8°
Drops below altitude 10° 10:30:40 10° 22° (NNE) 2,677 10.4 40.7°
Sets 10:33:29 0° 31° (NNE) 3,643 11.0 41.1°
